Location: T. Spence Memorial Observatory
(32.7356°N, 82.2098°W)
Time: 14:44:39
(UTC-04:00)

Daily predictions for brighter satellites

Satellite Brightness Start Highest point End
(mag) Time Altitude Azimuth Time Altitude Azimuth Time Altitude Azimuth
Cosmos 1513 Rocket 4.5 20:46:23 10° N 20:52:25 67° E 20:58:28 10° SSE
Cosmos 1933 3.8 20:52:44 10° N 20:56:33 43° E 21:00:23 10° SSE
COSMOS 2487 2.5 20:53:50 10° N 20:57:21 63° ENE 21:00:51 10° SSE
Cosmos 1937 Rocket 3.4 20:53:56 10° S 20:59:02 76° ESE 21:04:11 10° NNE
H-2A ROCKET BODY 1.3 20:58:01 10° WSW 20:59:59 38° S 21:04:11 10° ESE
Meteor 2-10 Rocket 3.9 20:56:29 10° N 21:02:17 63° E 21:07:58 10° SSE
GPS 2-04 Rocket1 3.1 20:58:51 10° W 21:02:37 56° N 21:06:13 10° ENE
Resurs 1-3 3.6 21:05:20 10° SSE 21:09:42 80° ENE 21:14:05 10° N
Cosmos 2150 Rocket 4.2 21:06:11 10° SSW 21:11:34 86° WNW 21:16:55 10° NNE
Cosmos 1470 Rocket 3.9 21:07:27 10° S 21:11:55 75° W 21:16:25 10° N
Cosmos 2298 Rocket 4.3 21:06:59 10° SSW 21:12:15 73° WNW 21:17:33 10° NNE
Hubble Space Telescope 2.5 21:09:38 10° WSW 21:12:51 22° SSW 21:16:03 10° SSE
Meteor 1-29 4.3 21:13:22 10° NE 21:16:08 22° E 21:18:51 10° SSE
Meteor 2-3 Rocket 3.8 21:11:11 10° S 21:16:48 59° E 21:22:23 10° NNE
Cosmos 1408 4.5 21:18:02 12° ESE 21:19:10 14° E 21:21:06 10° NE
Milstar 3 4.1 21:07:11 10° SW 21:21:27 50° SSE 21:29:24 10° E
Cosmos 2082 Rocket 3.2 21:17:22 10° NNW 21:22:46 47° WSW 21:28:10 10° S
Meteor 1-26 Rocket 4.3 21:18:09 10° N 21:23:44 60° E 21:29:26 10° SSE
Star 37E S/N 40062 3.6 21:24:16 10° WSW 21:26:09 37° S 21:28:22 17° ESE
ERS-1 Rocket 4.4 21:23:32 13° ESE 21:26:34 22° ENE 21:30:20 10° NNE
Cosmos 2344 4.1 21:21:40 10° S 21:28:27 33° ESE 21:35:17 10° NE
Cosmos 1825 3.7 21:28:20 16° ESE 21:29:21 18° E 21:31:57 10° NE
Cosmos 1869 Rocket 4.1 21:26:48 10° SSE 21:30:46 36° E 21:34:46 10° NNE
Cosmos 1833 Rocket 3.9 21:26:29 10° NW 21:31:43 40° WSW 21:36:55 10° S
Spot 2 Rocket 3.9 21:26:43 10° S 21:31:45 64° WSW 21:36:50 10° NNW
Helios 1B rocket 2.3 21:35:31 10° NNE 21:39:37 69° ESE 21:43:40 10° S
OAO 3 Copernicus 4.2 21:39:52 10° WSW 21:44:52 73° SSE 21:49:31 12° ENE
Cosmos 1892 3.6 21:42:33 10° SSW 21:46:18 50° W 21:50:02 10° N
USA 186 3.7 21:45:50 10° SSW 21:47:55 22° W 21:50:09 10° NW
Lacrosse 4 Rocket 3.8 21:46:30 10° NNE 21:48:01 11° NE 21:49:28 10° ENE
ISS -1.0 21:47:39 10° W 21:50:13 21° NW 21:52:48 10° NNE
Cosmos 1943 Rocket 2.3 21:44:49 10° S 21:50:15 53° ESE 21:55:39 10° NNE
Cosmos 2221 Rocket 4.1 21:46:55 10° N 21:51:06 39° E 21:52:52 27° SE
Envisat 3.8 21:53:53 10° S 21:58:47 50° W 22:03:43 10° NNW
Spot 1 4.3 21:56:21 21° SSE 21:59:29 81° ENE 22:04:28 10° N
Cosmos 2263 4.2 21:53:54 10° SSW 21:59:40 85° ESE 22:05:26 10° NNE
Cosmos 1634 Rocket 4.0 21:55:16 10° N 22:01:36 81° E 22:06:36 17° S
NOAA 11 4.4 21:58:58 26° SE 22:01:49 52° ENE 22:07:07 10° N
CENTAUR R/B 2.4 21:56:45 10° SSW 22:02:34 89° WNW 22:09:10 10° NNE
Tiangong 2 1.7 21:59:32 10° NW 22:02:39 48° NNE 22:03:23 39° ENE
Cosmos 1900 4.3 21:57:38 10° NNW 22:02:49 85° ENE 22:05:27 29° SSE
Cosmos 372 Rocket 3.9 21:58:15 10° S 22:03:19 62° ESE 22:08:22 10° NNE
CZ-3A R/B 2.8 22:02:23 10° SW 22:04:10 14° SSW 22:04:10 14° SSW
COSMOS 2455 3.9 22:02:26 10° SW 22:08:11 47° WNW 22:13:58 10° NNE
Helios 1A 3.3 22:05:40 20° S 22:08:23 63° WSW 22:12:33 10° NNW
Cosmos 1340 3.9 22:05:48 10° NNE 22:08:45 26° ENE 22:08:45 26° ENE
SPOT 5 4.0 22:08:10 28° ESE 22:09:42 33° ENE 22:14:26 10° N
CZ-4B DEB 2.6 22:09:44 58° SSW 22:10:09 72° W 22:13:03 10° NNW
Cosmos 2369 Rocket 3.1 22:06:24 10° SW 22:11:52 51° WNW 22:17:24 10° N
Cosmos 1125 Rocket 3.5 22:08:34 10° SSW 22:13:49 83° WNW 22:19:04 10° NNE
Resurs 01 Rocket 4.3 22:13:00 10° SW 22:15:32 15° W 22:18:03 10° WNW
OAO 2 Rocket 4.1 22:12:34 10° W 22:17:12 37° SSW 22:18:25 32° S
SAR-Lupe-4 3.6 22:17:05 50° S 22:17:54 77° WSW 22:21:29 10° NNW
Delta 168 4.1 22:15:57 10° WSW 22:19:00 29° S 22:19:00 29° S
Lacrosse 5 rocket 3.9 22:20:01 10° W 22:22:38 19° NW 22:25:18 10° N
Cosmos 1606 2.5 22:19:52 10° N 22:23:38 70° E 22:23:46 70° ESE
Delta 7925 Rocket 4.1 22:21:03 10° SW 22:25:14 35° S 22:25:14 35° S
YAOGAN 6 4.0 22:23:55 21° SSW 22:25:44 35° W 22:29:09 10° NNW
Shenzhou-11 Module 2.7 22:23:09 10° WNW 22:25:36 52° W 22:25:36 52° W
TRAILBLAZER 4.4 22:32:11 27° SSW 22:34:37 88° ESE 22:39:10 10° NNE
Cosmos 2279 Rocket 3.9 22:29:07 10° N 22:35:24 88° E 22:38:02 37° S
MetOp-B 4.0 22:35:41 46° SSE 22:37:22 89° WSW 22:42:44 10° NNW
ATLAS 5 CENTAUR R/B 2.9 22:33:32 10° NNW 22:39:29 49° ENE 22:41:08 40° E
Okean 1-7 3.8 22:37:10 10° NNW 22:41:25 48° W 22:42:46 35° SW
Meteor 1-27 Rocket 3.7 22:36:45 10° N 22:42:27 63° E 22:43:18 55° ESE
GPS 2-04 Rocket1 3.1 22:38:55 10° WNW 22:42:02 54° NW 22:42:02 54° NW
H-2A R/B 2.3 22:42:10 51° E 22:42:47 54° ENE 22:48:00 10° N
Meteor 1-10 Rocket 4.4 22:37:09 10° NNW 22:43:04 73° W 22:45:26 37° S
ARGOS 3.1 22:47:37 56° S 22:48:47 85° WSW 22:54:10 10° NNW
Cosmos 1656 Rocket 3.4 22:48:00 61° S 22:48:53 75° ESE 22:54:22 10° NNE
Intercosmos 25 Rocket 4.3 22:44:46 10° N 22:50:46 48° ENE 22:50:46 48° ENE
Cosmos 158 Rocket 3.7 22:47:32 10° NNW 22:52:25 80° WSW 22:52:45 75° SSW
Cosmos 1733 Rocket 3.3 23:01:46 64° NW 23:01:46 64° NW 23:05:43 10° N
Cosmos 1782 4.5 23:01:02 10° NNW 23:04:25 27° W 23:04:51 26° WSW
ERS-1 Rocket 4.2 23:03:32 28° SW 23:05:04 34° W 23:09:39 10° NNW
SL-08 RB Rocket 4.0 23:07:02 64° W 23:07:02 64° W 23:11:35 10° NNW
Landsat 7 4.3 23:17:28 56° N 23:17:28 56° N 23:21:17 10° N
Meteor 2-20 4.4 23:20:23 71° SW 23:21:02 80° W 23:27:10 10° N
Meteor 2-20 Rocket 4.3 23:22:12 79° ENE 23:22:12 79° ENE 23:28:12 10° N
USA 215 3.1 23:22:28 74° SSE 23:23:09 86° SW 23:29:45 10° NW
Cosmos 2227 Rocket 4.4 23:22:29 10° NNE 23:24:43 12° NE 23:24:43 12° NE
Lacrosse 4 Rocket 2.7 23:22:43 10° NNW 23:25:48 41° NW 23:25:48 41° NW
Cosmos 2026 Rocket 4.3 23:28:05 54° NE 23:28:05 54° NE 23:33:15 10° NNE
Cosmos 2219 4.0 23:25:44 10° N 23:30:23 41° NE 23:30:23 41° NE
Terra 2.7 23:33:08 44° N 23:33:08 44° N 23:36:26 10° N
ATLAS CENTAUR R/B 4.1 23:36:09 12° NNE 23:36:09 12° NNE 23:36:30 10° NNE
BREEZE-M DEB (TANK) 3.9 23:36:03 46° NE 23:36:03 46° NE 23:43:31 10° NE
Cosmos 2251 Rocket 4.3 23:37:10 10° NNW 23:40:56 47° N 23:40:56 47° N
SME Rocket 4.3 23:43:23 66° ENE 23:43:23 66° ENE 23:51:49 10° N
H-2A R/B 4.2 23:53:59 22° N 23:53:59 22° N 23:55:32 10° N
GEOS 3 Rocket 4.4 23:54:47 48° NNW 23:54:47 48° NNW 23:58:33 10° NNW
